Location: Buenos Aires
(34.6076°S, 58.4371°W)
Time: 12:55:38
(UTC-03:00)

Envisat - Pass Details

Date: 28 June 2021
Orbit: 764 x 766 km, 98.2° (Epoch: 03 August)

Event Time Altitude Azimuth Distance (km) Brightness Sun altitude
Rises 04:50:50 0° 35° (NE) 3,221 6.7 -38.3°
Reaches altitude 10° 04:53:16 10° 43° (NE) 2,303 5.9 -37.8°
Enters shadow 04:55:34 24° 61° (ENE) 1,552 5.0 -37.4°
